Gillette, WY

2:54 AM MDT on April 25, 2018 (GMT -0600)
Gillette-Campbell County

Weather History for KGCC - September, 2014

Change the Weather History Date:

Saturday, September 27, 2014

  Actual Average Record
Temperature  
Mean Temperature 64 °F 53 °F  
Max Temperature 73 °F 67 °F 90 °F (1963)
Min Temperature 55 °F 39 °F 22 °F (1964)
Degree Days  
Heating Degree Days 1 12  
Month to date heating degree days 194 198  
Since 1 July heating degree days 243 255  
Cooling Degree Days 0 0  
Month to date cooling degree days 57 40  
Year to date cooling degree days 412 500  
Growing Degree Days 14 (Base 50)    
Moisture  
Dew Point 46 °F    
Average Humidity 54    
Maximum Humidity 67    
Minimum Humidity 41    
Precipitation  
Precipitation 0.00 in 0.05 in 0.97 in (1982)
Month to date precipitation 0.67 1.06  
Year to date precipitation 15.93 11.54  
Sea Level Pressure  
Sea Level Pressure 29.92 in    
Wind  
Wind Speed 15 mph (NNW)    
Max Wind Speed 23 mph    
Max Gust Speed 28 mph    
Visibility 10 miles    
Events      
T = Trace of Precipitation, MM = Missing Value Source: NWS Daily Summary

Daily Weather History Graph

Daily Weather History Graph

Search for Another Location

Airport or City:

Astronomy

Sep. 27, 2014 Rise Set
Actual Time 6:55 AM MDT 6:50 PM MDT
Civil Twilight 6:26 AM MDT 7:19 PM MDT
Nautical Twilight 5:52 AM MDT 7:52 PM MDT
Astronomical Twilight 5:18 AM MDT 8:27 PM MDT
Moon 10:20 AM MDT (9/27) 8:43 PM MDT (9/27)
Length of Visible Light 12h 52m
Length of Day
11h 54m
Waxing Crescent, 12% of the Moon is Illuminated
Sep 27
Waxing Crescent
Oct 1
First Quarter
Oct 8
Full
Oct 15
Last Quarter
Oct 23
New

Hourly Weather History & Observations

Time (MDT) Temp. Dew Point Humidity Pressure Visibility Wind Dir Wind Speed Gust Speed Precip Events Conditions
12:53 AM 62.1 °F 46.0 °F 56% 29.81 in 10.0 mi NNW 12.7 mph - N/A   Clear
1:53 AM 60.1 °F 46.9 °F 62% 29.83 in 10.0 mi NNW 11.5 mph - N/A   Clear
2:53 AM 57.9 °F 46.0 °F 65% 29.83 in 10.0 mi NNW 9.2 mph - N/A   Clear
3:53 AM 57.0 °F 46.0 °F 67% 29.83 in 10.0 mi WNW 10.4 mph - N/A   Clear
4:53 AM 55.9 °F 45.0 °F 67% 29.85 in 10.0 mi WNW 8.1 mph - N/A   Clear
5:53 AM 55.9 °F 45.0 °F 67% 29.86 in 10.0 mi NW 11.5 mph - N/A   Clear
6:53 AM 55.9 °F 45.0 °F 67% 29.90 in 10.0 mi NW 11.5 mph - N/A   Clear
7:53 AM 57.9 °F 45.0 °F 62% 29.94 in 10.0 mi NW 13.8 mph - N/A   Clear
8:53 AM 59.0 °F 45.0 °F 60% 29.93 in 10.0 mi NNW 17.3 mph - N/A   Clear
9:53 AM 62.1 °F 45.0 °F 53% 29.92 in 10.0 mi NNW 18.4 mph - N/A   Clear
10:53 AM 66.0 °F 46.0 °F 48% 29.92 in 10.0 mi North 12.7 mph - N/A   Clear
11:53 AM 66.9 °F 46.0 °F 47% 29.92 in 10.0 mi North 16.1 mph - N/A   Clear
12:53 PM 69.1 °F 46.9 °F 45% 29.90 in 10.0 mi North 16.1 mph 25.3 mph N/A   Clear
1:53 PM 71.1 °F 46.9 °F 42% 29.90 in 10.0 mi North 17.3 mph - N/A   Clear
2:53 PM 72.0 °F 46.9 °F 41% 29.90 in 10.0 mi North 19.6 mph 24.2 mph N/A   Clear
3:53 PM 71.1 °F 46.9 °F 42% 29.90 in 10.0 mi North 19.6 mph - N/A   Clear
4:53 PM 72.0 °F 46.9 °F 41% 29.91 in 10.0 mi NNE 18.4 mph 25.3 mph N/A   Clear
5:53 PM 68.0 °F 46.9 °F 47% 29.94 in 10.0 mi North 15.0 mph - N/A   Clear
6:53 PM 66.0 °F 46.9 °F 50% 29.97 in 10.0 mi North 16.1 mph - N/A   Overcast
7:53 PM 64.9 °F 46.9 °F 52% 30.01 in 10.0 mi NNW 15.0 mph - N/A   Overcast
8:53 PM 63.0 °F 46.9 °F 56% 30.03 in 10.0 mi NNW 18.4 mph 24.2 mph N/A   Overcast
9:53 PM 62.1 °F 46.0 °F 56% 30.03 in 10.0 mi North 19.6 mph 26.5 mph N/A   Overcast
10:53 PM 61.0 °F 45.0 °F 56% 30.03 in 10.0 mi North 12.7 mph - N/A   Overcast
11:53 PM 60.1 °F 42.1 °F 51% 30.03 in 10.0 mi North 16.1 mph 24.2 mph N/A   Overcast